Torna al catalogo

STARLINK-37022

AttivoComunicazioniSSO
NORAD 68101·PAYLOAD·🇺🇸 United States

Lanciato Mar 8, 2026 da Vandenberg Space Force Base

Loading…

Prossimi Passaggi (prossime 24 ore)

TLE

AggiornatoSource: CelesTrak SupGP

Epoca: Sep 15, 2026, 03:04 UTC

1 68101C 26044A   26258.12826389 -.00002968  00000+0 -92176-4 0  2587
2 68101  97.2851 217.0754 0001948  90.6535 114.9219 15.33428929    10

Traccia STARLINK-37022 in tempo reale con AllMySat

Download on the App Store